• în România
  • Lista ţărilor
  • Pe 7 zile
  • Temperatura apei
  • Hartă satelitară
  • Meteo pe hartă
  • Widget-uri
  • user-avatar
    Intrare

    Meteo pe oră la Ilchigulovo

    Astăzi, 19 Octombrie, Vineri

    Timp Temperatura Precipitaţii Vânt Presiune Umiditate
    00:00 -1°C° 0 mm 3 m/s 724 mmHg 85%
    01:00 -1°C° 0 mm 3 m/s 724 mmHg 87%
    02:00 0°C° 0.1 mm 3 m/s 724 mmHg 86%
    03:00 0°C° 0.1 mm 3 m/s 724 mmHg 85%
    04:00 +2°C° 0.1 mm 2 m/s 724 mmHg 85%
    05:00 +1°C° 0.6 mm 3 m/s 723 mmHg 85%
    06:00 +1°C° 0.6 mm 3 m/s 723 mmHg 86%
    07:00 +2°C° 0.6 mm 3 m/s 723 mmHg 87%
    08:00 +3°C° 0.3 mm 3 m/s 722 mmHg 86%
    09:00 +4°C° 0.3 mm 4 m/s 722 mmHg 84%
    10:00 +5°C° 0.3 mm 4 m/s 722 mmHg 83%
    11:00 +6°C° 0 mm 5 m/s 722 mmHg 81%
    12:00 +7°C° 0 mm 5 m/s 722 mmHg 79%
    13:00 +7°C° 0 mm 5 m/s 722 mmHg 77%
    14:00 +7°C° 0 mm 5 m/s 722 mmHg 79%
    15:00 +6°C° 0 mm 4 m/s 722 mmHg 80%
    16:00 +6°C° 0 mm 4 m/s 722 mmHg 82%
    17:00 +5°C° 0 mm 3 m/s 722 mmHg 84%
    18:00 +5°C° 0 mm 3 m/s 722 mmHg 87%
    19:00 +4°C° 0 mm 3 m/s 722 mmHg 89%
    20:00 +4°C° 0 mm 3 m/s 722 mmHg 89%
    21:00 +5°C° 0 mm 3 m/s 722 mmHg 89%
    22:00 +5°C° 0 mm 4 m/s 722 mmHg 90%
    23:00 +5°C° 0 mm 4 m/s 721 mmHg 89%

    Mâine, 20 Octombrie, Sâmbătă

    Timp Temperatura Precipitaţii Vânt Presiune Umiditate
    00:00 +5°C° 0 mm 4 m/s 721 mmHg 88%
    01:00 +5°C° 0 mm 4 m/s 721 mmHg 88%
    02:00 +5°C° 0 mm 4 m/s 721 mmHg 88%
    03:00 +5°C° 0 mm 4 m/s 721 mmHg 88%
    04:00 +6°C° 0 mm 4 m/s 720 mmHg 89%
    05:00 +6°C° 0.1 mm 4 m/s 720 mmHg 89%
    06:00 +6°C° 0.1 mm 4 m/s 720 mmHg 89%
    07:00 +7°C° 0.1 mm 4 m/s 720 mmHg 90%
    08:00 +7°C° 0.4 mm 4 m/s 720 mmHg 89%
    09:00 +8°C° 0.4 mm 4 m/s 719 mmHg 88%
    10:00 +8°C° 0.4 mm 4 m/s 719 mmHg 87%
    11:00 +10°C° 0.2 mm 4 m/s 719 mmHg 84%
    12:00 +10°C° 0.2 mm 4 m/s 719 mmHg 82%
    13:00 +10°C° 0.2 mm 5 m/s 719 mmHg 79%
    14:00 +10°C° 0.7 mm 4 m/s 719 mmHg 81%
    15:00 +8°C° 0.7 mm 4 m/s 719 mmHg 83%
    16:00 +7°C° 0.7 mm 4 m/s 719 mmHg 85%
    17:00 +8°C° 0.4 mm 3 m/s 719 mmHg 86%
    18:00 +7°C° 0.4 mm 3 m/s 719 mmHg 87%
    19:00 +7°C° 0.4 mm 3 m/s 719 mmHg 88%
    20:00 +5°C° 0 mm 3 m/s 720 mmHg 87%
    21:00 +4°C° 0 mm 3 m/s 720 mmHg 85%
    22:00 +4°C° 0 mm 3 m/s 720 mmHg 84%
    23:00 +3°C° 0 mm 3 m/s 720 mmHg 83%

    Poimâine, 21 Octombrie, Duminică

    Timp Temperatura Precipitaţii Vânt Presiune Umiditate
    00:00 +3°C° 0 mm 3 m/s 720 mmHg 83%
    01:00 +3°C° 0 mm 3 m/s 721 mmHg 82%
    02:00 +2°C° 0 mm 3 m/s 721 mmHg 84%
    03:00 +2°C° 0 mm 3 m/s 721 mmHg 85%
    04:00 +1°C° 0 mm 3 m/s 721 mmHg 86%
    05:00 +2°C° 0 mm 3 m/s 722 mmHg 87%
    06:00 +2°C° 0 mm 3 m/s 722 mmHg 87%
    07:00 +2°C° 0 mm 3 m/s 722 mmHg 87%
    08:00 +1°C° 0 mm 4 m/s 723 mmHg 84%
    09:00 +3°C° 0 mm 4 m/s 723 mmHg 80%
    10:00 +3°C° 0 mm 5 m/s 723 mmHg 76%
    11:00 +3°C° 0.1 mm 5 m/s 724 mmHg 75%
    12:00 +5°C° 0.1 mm 5 m/s 724 mmHg 73%
    13:00 +5°C° 0.1 mm 5 m/s 724 mmHg 72%
    14:00 +3°C° 0.1 mm 5 m/s 725 mmHg 74%
    15:00 +3°C° 0.1 mm 5 m/s 725 mmHg 75%
    16:00 +2°C° 0.1 mm 5 m/s 725 mmHg 77%
    17:00 +3°C° 0 mm 4 m/s 726 mmHg 78%
    18:00 +1°C° 0 mm 4 m/s 726 mmHg 78%
    19:00 0°C° 0 mm 4 m/s 727 mmHg 79%
    20:00 -1°C° 0 mm 4 m/s 727 mmHg 79%
    21:00 0°C° 0 mm 3 m/s 727 mmHg 80%
    22:00 -1°C° 0 mm 3 m/s 728 mmHg 80%
    23:00 -1°C° 0 mm 3 m/s 728 mmHg 80%

    22 Octombrie, Luni

    Timp Temperatura Precipitaţii Vânt Presiune Umiditate
    00:00 -2°C° 0 mm 3 m/s 728 mmHg 79%
    01:00 -2°C° 0 mm 3 m/s 728 mmHg 79%
    02:00 -2°C° 0 mm 3 m/s 729 mmHg 78%
    03:00 -2°C° 0 mm 3 m/s 729 mmHg 78%
    04:00 -2°C° 0 mm 3 m/s 729 mmHg 77%
    05:00 -4°C° 0 mm 3 m/s 730 mmHg 78%
    06:00 -3°C° 0 mm 2 m/s 730 mmHg 78%
    07:00 -3°C° 0 mm 2 m/s 730 mmHg 79%
    08:00 -2°C° 0 mm 2 m/s 730 mmHg 74%
    09:00 -1°C° 0 mm 3 m/s 730 mmHg 70%
    10:00 -1°C° 0 mm 3 m/s 731 mmHg 66%
    11:00 0°C° 0 mm 3 m/s 731 mmHg 64%
    12:00 0°C° 0 mm 3 m/s 731 mmHg 63%
    13:00 +1°C° 0 mm 3 m/s 731 mmHg 61%
    14:00 +1°C° 0 mm 2 m/s 731 mmHg 63%
    15:00 +1°C° 0 mm 2 m/s 731 mmHg 66%
    16:00 +1°C° 0 mm 2 m/s 731 mmHg 68%
    17:00 -1°C° 0 mm 2 m/s 731 mmHg 72%
    18:00 0°C° 0 mm 1 m/s 731 mmHg 76%
    19:00 -1°C° 0 mm 1 m/s 731 mmHg 80%
    20:00 -1°C° 0 mm 1 m/s 731 mmHg 79%
    21:00 -1°C° 0 mm 1 m/s 731 mmHg 79%
    22:00 -1°C° 0 mm 1 m/s 731 mmHg 79%
    23:00 -1°C° 0 mm 1 m/s 731 mmHg 78%

    23 Octombrie, Marţi

    Timp Temperatura Precipitaţii Vânt Presiune Umiditate
    00:00 -1°C° 0 mm 1 m/s 731 mmHg 77%
    01:00 -1°C° 0 mm 1 m/s 731 mmHg 76%
    02:00 -1°C° 0 mm 1 m/s 731 mmHg 75%
    03:00 -1°C° 0 mm 1 m/s 731 mmHg 75%
    04:00 -1°C° 0 mm 1 m/s 731 mmHg 74%
    05:00 -1°C° 0 mm 1 m/s 731 mmHg 73%
    06:00 -1°C° 0 mm 1 m/s 730 mmHg 72%
    07:00 -1°C° 0 mm 1 m/s 730 mmHg 71%
    08:00 -1°C° 0 mm 2 m/s 730 mmHg 64%
    09:00 +1°C° 0 mm 2 m/s 730 mmHg 57%
    10:00 +3°C° 0 mm 2 m/s 730 mmHg 50%
    11:00 +4°C° 0 mm 2 m/s 730 mmHg 48%
    12:00 +5°C° 0 mm 2 m/s 730 mmHg 45%
    13:00 +6°C° 0 mm 2 m/s 730 mmHg 42%
    14:00 +5°C° 0 mm 2 m/s 730 mmHg 47%
    15:00 +4°C° 0 mm 2 m/s 729 mmHg 52%
    16:00 +3°C° 0 mm 2 m/s 729 mmHg 57%
    17:00 +2°C° 0 mm 2 m/s 729 mmHg 60%
    18:00 +1°C° 0 mm 2 m/s 729 mmHg 63%
    19:00 -1°C° 0 mm 2 m/s 729 mmHg 66%
    20:00 -1°C° 0 mm 2 m/s 729 mmHg 66%
    21:00 -1°C° 0 mm 2 m/s 729 mmHg 66%
    22:00 +1°C° 0 mm 1 m/s 729 mmHg 66%
    23:00 +1°C° 0 mm 1 m/s 729 mmHg 64%

    24 Octombrie, Miercuri

    Timp Temperatura Precipitaţii Vânt Presiune Umiditate
    00:00 +1°C° 0 mm 1 m/s 729 mmHg 63%
    01:00 +1°C° 0 mm 1 m/s 728 mmHg 62%
    02:00 +1°C° 0 mm 1 m/s 728 mmHg 62%
    03:00 +1°C° 0 mm 1 m/s 728 mmHg 61%
    04:00 +1°C° 0 mm 1 m/s 728 mmHg 61%
    05:00 -1°C° 0 mm 2 m/s 727 mmHg 63%
    06:00 -1°C° 0 mm 2 m/s 727 mmHg 64%
    07:00 -1°C° 0 mm 2 m/s 727 mmHg 66%
    08:00 +1°C° 0 mm 3 m/s 726 mmHg 65%
    09:00 +3°C° 0 mm 3 m/s 726 mmHg 65%
    10:00 +4°C° 0 mm 4 m/s 726 mmHg 64%
    11:00 +5°C° 0.1 mm 4 m/s 726 mmHg 66%
    12:00 +6°C° 0.1 mm 4 m/s 725 mmHg 68%
    13:00 +7°C° 0.1 mm 4 m/s 725 mmHg 70%
    14:00 +6°C° 0.1 mm 4 m/s 725 mmHg 74%
    15:00 +5°C° 0.1 mm 4 m/s 724 mmHg 78%
    16:00 +5°C° 0.1 mm 4 m/s 724 mmHg 81%
    17:00 +4°C° 0 mm 4 m/s 724 mmHg 81%
    18:00 +4°C° 0 mm 4 m/s 723 mmHg 80%
    19:00 +3°C° 0 mm 4 m/s 723 mmHg 79%
    20:00 +3°C° 0 mm 4 m/s 723 mmHg 76%
    21:00 +2°C° 0 mm 5 m/s 723 mmHg 72%
    22:00 +3°C° 0 mm 5 m/s 722 mmHg 69%
    23:00 +3°C° 0.3 mm 5 m/s 722 mmHg 70%
    Arată mai mult